Wind_Speed
43 43 44 43 43 43 43 43 43 43 42 41 41 41 41 41 42 42 41 42 43 43 43 44 46 46 47 48 48 48 48 49 47 46 45 44 44 44 43 42 41 40 40
43 44 44 44 44 44 44 44 44 44 43 43 42 42 42 42 42 42 42 43 43 44 45 45 45 46 47 48 49 49 50 51 49 49 48 47 46 46 45 44 43 43 42
43 43 44 45 45 45 45 44 44 44 44 44 44 43 43 42 42 42 43 44 44 44 46 46 46 46 48 49 49 50 51 52 52 51 50 49 48 48 47 47 46 45 45
42 43 44 45 45 45 45 45 45 45 45 44 44 44 43 43 42 43 43 44 44 45 46 47 47 48 49 50 51 52 52 53 52 52 51 50 49 50 49 48 47 46 46
41 42 43 44 44 44 45 45 45 45 46 45 45 45 44 44 43 44 44 44 45 46 46 47 48 49 49 50 51 52 52 53 53 53 52 51 51 51 51 49 49 49 48
40 41 42 43 43 44 44 45 45 45 46 46 46 45 45 44 44 44 44 44 45 45 46 48 48 48 49 49 50 52 52 52 54 54 54 52 52 52 52 51 50 50 50
40 40 41 42 42 43 43 44 45 45 46 46 46 45 46 46 45 45 45 45 45 45 46 47 48 48 48 48 48 50 50 51 53 54 54 54 54 53 53 53 52 52 51
40 40 41 41 42 42 43 44 45 45 46 46 45 45 45 45 46 46 46 46 45 45 46 46 47 47 47 47 47 48 48 50 52 54 54 54 54 54 54 54 53 52 52
40 40 40 41 42 43 43 44 44 45 46 46 46 46 46 46 46 46 47 47 46 46 46 46 46 47 47 46 46 47 48 49 51 53 54 54 54 55 55 55 54 53 52
40 40 40 40 40 42 42 43 44 44 45 45 46 46 47 47 47 47 47 47 47 47 47 47 47 47 47 47 47 47 48 50 50 51 52 53 53 54 55 55 53 52 52
39 40 40 40 40 41 41 41 42 43 44 44 44 45 46 46 47 47 47 47 47 47 47 48 48 49 48 48 48 47 47 48 49 50 51 52 53 53 54 54 53 53 52
38 38 38 39 39 40 40 41 41 42 42 43 44 44 45 45 46 46 47 46 46 46 47 48 48 48 48 49 48 48 47 48 49 50 51 52 52 53 53 54 53 53 53
37 37 37 38 39 39 40 40 40 41 41 41 42 43 44 45 45 46 46 47 47 47 47 48 48 48 48 49 48 48 48 48 49 50 51 51 52 53 53 54 54 54 54
36 36 36 37 38 39 39 40 40 40 40 40 41 42 43 44 44 44 45 46 46 46 46 47 48 48 48 47 47 47 47 47 48 49 50 51 52 53 53 54 54 53 54
36 36 36 37 37 38 38 39 39 40 40 40 40 40 41 42 43 44 44 44 45 45 46 46 46 46 46 46 46 46 46 46 47 48 50 50 51 52 53 53 54 55 55
36 35 35 36 37 37 38 39 39 40 40 40 40 40 40 41 41 42 44 44 44 44 45 45 45 46 46 46 45 45 46 47 47 48 49 50 51 51 53 54 55 55 55
34 34 34 35 36 37 38 38 39 40 40 40 40 40 40 41 42 42 43 43 43 44 44 44 44 45 46 46 45 44 45 45 46 47 48 49 50 51 53 55 56 55 55
33 33 33 34 34 35 36 37 38 39 40 41 41 41 41 41 41 41 42 42 42 42 42 43 43 44 44 44 43 43 43 43 44 46 47 48 49 50 52 54 55 55 55
32 32 33 33 34 35 36 36 37 38 39 40 40 40 40 40 40 40 40 40 40 41 41 42 42 43 44 44 43 42 42 42 43 45 47 48 49 50 52 53 54 55 55
31 32 33 33 34 35 36 36 36 37 38 38 39 39 39 39 39 39 39 39 40 40 41 41 42 43 43 43 43 43 43 43 43 43 44 46 48 50 51 52 53 54 54
29 30 31 32 33 34 34 34 34 35 36 37 37 37 37 37 38 38 38 38 39 40 40 41 41 42 43 43 43 42 42 43 43 43 43 45 47 48 49 50 51 53 54
28 29 30 32 32 32 32 32 32 33 34 34 34 34 34 35 35 36 37 37 38 38 38 39 40 41 42 43 43 42 41 42 42 43 44 44 45 47 49 50 50 52 54
28 29 29 29 30 30 30 30 30 30 30 30 30 31 31 32 33 33 34 35 36 37 37 37 38 39 41 42 42 42 42 41 41 42 43 44 45 46 48 50 51 52 53
27 28 29 29 29 29 28 28 28 28 28 28 28 28 29 29 30 31 32 33 34 34 35 35 36 37 39 40 40 41 42 42 42 42 43 44 44 44 46 48 49 50 51
28 28 28 28 27 27 26 26 25 25 26 26 27 27 27 28 28 29 29 30 32 33 33 34 35 36 37 38 39 40 41 42 42 42 42 42 43 43 44 46 47 47 48
28 28 27 26 25 24 24 24 24 24 24 24 24 25 25 26 26 27 27 28 29 30 31 32 33 34 34 35 37 37 38 40 40 41 41 40 40 40 41 43 44 46 47
Wind_Direction
266 264 264 264 265 266 266 265 265 265 263 264 263 262 261 261 259 258 257 255 254 253 251 250 249 248 247 247 248 249 249 248 249 249 249 248 248 247 247 246 246 246 248
266 265 265 265 265 266 266 265 265 264 264 263 263 262 261 261 259 259 258 256 254 254 252 251 251 250 248 248 248 248 249 248 249 249 248 248 248 248 248 248 247 246 247
267 265 265 265 266 266 266 265 265 263 263 263 262 263 261 260 260 259 258 257 255 254 253 252 252 251 250 249 249 249 249 249 250 249 248 248 248 248 248 248 249 248 247
268 266 265 265 265 266 265 265 265 263 263 263 262 262 262 260 259 259 259 257 256 255 254 252 253 253 252 251 250 249 250 250 249 248 248 248 249 249 248 248 249 248 248
269 268 267 266 266 265 265 265 264 263 262 262 261 260 261 261 260 259 258 257 257 256 255 254 253 253 254 253 252 250 250 250 248 247 246 248 248 249 249 248 248 249 248
269 269 268 267 266 266 265 264 264 263 263 262 261 260 260 260 260 259 258 257 257 256 255 254 254 254 255 255 254 252 251 249 248 247 246 247 247 248 248 248 248 249 248
269 268 268 267 266 265 265 264 264 263 262 262 262 261 260 260 260 259 258 257 256 255 254 253 253 254 255 255 254 253 252 251 249 247 246 247 247 247 248 248 248 248 248
270 269 268 267 266 265 264 264 264 263 262 262 262 261 261 260 259 259 258 257 256 255 254 253 253 253 254 254 254 254 253 252 250 248 246 246 246 246 247 247 248 248 248
270 270 268 267 267 266 266 265 264 263 262 262 262 262 262 261 260 259 259 258 257 256 254 253 253 253 254 254 255 255 254 253 251 248 247 246 245 245 246 247 247 247 246
271 269 268 267 268 267 267 266 265 264 263 263 262 263 263 262 261 260 259 258 256 256 256 254 254 254 254 255 256 256 254 252 251 249 247 246 246 245 244 245 245 245 245
274 270 269 268 268 268 267 267 266 264 264 264 264 263 263 263 262 260 258 257 256 257 257 257 255 254 254 254 254 254 253 251 250 249 247 245 244 243 243 243 244 244 244
275 272 270 269 269 269 267 267 266 265 265 264 264 264 263 262 261 259 257 256 256 256 257 257 256 255 254 253 254 253 253 252 250 249 247 246 244 243 242 242 243 245 246
275 272 271 270 269 269 268 267 266 266 265 265 264 264 263 262 261 259 256 255 255 255 256 256 256 256 255 254 254 254 253 253 251 249 247 246 245 244 243 243 244 245 246
275 273 272 271 270 270 269 268 266 266 266 265 265 265 264 262 260 258 258 256 256 256 256 256 255 256 255 254 253 252 251 251 251 250 248 247 246 244 243 243 243 244 245
276 274 272 271 271 270 270 269 267 267 267 266 265 265 264 263 261 259 258 258 258 257 256 256 255 255 254 252 251 251 251 251 250 249 248 247 246 244 243 243 242 243 244
276 275 273 272 271 270 270 269 268 268 267 267 266 266 265 263 261 260 259 259 259 259 257 255 254 253 252 252 251 251 251 251 250 250 249 248 246 244 244 244 243 243 244
279 276 274 273 273 272 271 270 269 269 269 268 268 267 266 264 263 262 261 260 260 259 258 256 254 252 252 251 251 252 251 250 250 250 250 249 247 246 245 244 244 244 245
282 278 276 275 275 275 274 272 271 270 270 269 269 269 267 265 264 263 262 260 259 258 258 257 254 252 250 250 249 251 251 251 250 250 249 249 248 247 246 245 245 245 245
284 281 278 278 278 277 276 275 274 273 272 271 271 270 267 264 264 263 261 259 258 257 258 258 255 252 249 249 249 251 252 251 251 251 250 249 250 249 248 246 246 247 247
286 284 281 281 280 280 280 278 277 276 274 273 272 270 267 264 263 262 260 259 258 257 257 257 255 252 249 249 250 253 252 251 251 251 251 250 250 250 249 248 248 248 248
288 286 285 284 283 283 283 281 279 278 278 276 273 271 267 265 263 261 260 258 257 257 257 256 254 252 250 249 251 252 253 252 252 252 252 252 252 250 250 249 249 249 249
290 289 287 286 285 285 284 284 282 281 280 278 275 271 267 265 264 261 259 258 257 257 256 255 254 252 250 250 251 253 253 252 252 253 254 254 253 252 251 251 250 250 251
293 291 290 290 288 287 286 285 284 282 281 279 277 273 268 266 264 262 259 257 257 256 256 255 254 252 251 251 252 253 254 254 253 253 254 255 255 254 253 253 252 252 252
296 294 292 291 291 289 288 286 285 284 282 280 278 274 270 268 266 262 260 258 257 256 256 256 254 252 251 252 253 254 254 254 255 255 256 256 256 255 254 253 253 253 253
299 298 296 295 293 291 289 288 288 286 283 281 279 275 271 269 267 264 261 259 257 256 257 257 255 252 253 255 255 255 255 255 256 256 256 256 256 255 255 254 253 254 255
301 300 298 296 295 293 291 290 289 288 286 283 280 276 273 270 267 264 262 260 259 257 256 256 255 254 256 257 257 257 258 257 256 256 255 255 255 255 255 256 256 257 258
Height
5665 5665 5666 5666 5667 5668 5668 5669 5669 5669 5670 5671 5672 5673 5674 5674 5675 5676 5677 5679 5680 5682 5685 5688 5692 5696 5700 5704 5708 5713 5717 5720 5724 5728 5731 5734 5737 5741 5744 5748 5751 5755 5758
5654 5654 5655 5655 5656 5657 5657 5658 5658 5658 5659 5660 5661 5661 5662 5663 5664 5665 5666 5668 5669 5671 5674 5677 5680 5684 5688 5692 5696 5700 5704 5708 5712 5715 5719 5723 5727 5730 5734 5737 5741 5744 5748
5642 5643 5643 5644 5644 5645 5646 5646 5647 5647 5648 5648 5649 5650 5651 5652 5653 5654 5655 5657 5658 5660 5663 5665 5669 5672 5675 5679 5683 5687 5691 5695 5699 5702 5707 5711 5715 5719 5723 5726 5730 5733 5737
5631 5631 5631 5632 5632 5633 5634 5634 5635 5635 5636 5636 5637 5638 5639 5640 5642 5642 5644 5645 5646 5648 5651 5654 5657 5660 5663 5666 5670 5674 5678 5681 5685 5689 5694 5699 5703 5707 5711 5715 5719 5722 5726
5619 5619 5619 5620 5620 5621 5621 5622 5622 5623 5624 5624 5625 5626 5627 5628 5629 5630 5631 5633 5634 5636 5638 5641 5644 5647 5650 5653 5656 5659 5664 5668 5672 5676 5680 5685 5690 5694 5699 5703 5707 5711 5715
5608 5608 5608 5608 5608 5609 5609 5610 5610 5611 5611 5611 5612 5613 5615 5615 5616 5617 5619 5620 5622 5623 5625 5628 5631 5634 5637 5639 5642 5645 5649 5653 5657 5662 5667 5672 5676 5682 5686 5691 5695 5699 5703
5596 5596 5596 5596 5596 5597 5597 5597 5598 5598 5598 5599 5600 5601 5602 5603 5604 5605 5606 5608 5609 5611 5613 5615 5618 5620 5623 5626 5628 5631 5635 5639 5643 5647 5652 5657 5663 5668 5672 5677 5682 5686 5691
5584 5584 5584 5584 5584 5585 5585 5585 5586 5586 5586 5587 5587 5588 5589 5590 5591 5592 5593 5595 5596 5598 5600 5602 5605 5608 5610 5613 5615 5618 5621 5625 5629 5633 5638 5643 5648 5653 5658 5663 5668 5673 5678
5572 5572 5572 5572 5572 5572 5573 5573 5573 5573 5574 5574 5575 5575 5576 5577 5578 5579 5580 5582 5583 5585 5587 5590 5592 5595 5597 5600 5602 5605 5608 5611 5614 5619 5623 5628 5633 5638 5644 5649 5654 5659 5664
5560 5560 5560 5560 5560 5560 5560 5560 5560 5561 5561 5562 5562 5562 5563 5564 5565 5566 5567 5569 5570 5572 5574 5577 5579 5581 5584 5587 5589 5592 5594 5597 5600 5604 5609 5613 5618 5623 5629 5634 5640 5645 5650
5548 5548 5548 5548 5548 5548 5548 5548 5548 5548 5549 5549 5549 5550 5550 5551 5552 5553 5554 5556 5557 5559 5561 5563 5566 5568 5571 5573 5576 5578 5581 5583 5587 5590 5595 5599 5604 5609 5614 5620 5626 5632 5637
5537 5537 5537 5536 5536 5536 5536 5536 5535 5536 5536 5536 5537 5537 5537 5538 5539 5540 5541 5543 5544 5546 5547 5549 5552 5554 5557 5560 5562 5565 5567 5570 5573 5577 5581 5585 5590 5595 5601 5607 5613 5618 5624
5526 5525 5525 5525 5525 5524 5524 5524 5523 5523 5524 5524 5524 5524 5524 5525 5526 5527 5528 5529 5531 5533 5534 5536 5538 5541 5543 5546 5549 5551 5554 5557 5560 5563 5567 5572 5576 5581 5587 5593 5599 5604 5610
5515 5515 5514 5514 5513 5513 5512 5512 5512 5511 5511 5511 5511 5512 5512 5512 5513 5514 5515 5516 5518 5519 5521 5523 5525 5527 5530 5533 5535 5538 5541 5544 5547 5550 5554 5558 5562 5567 5573 5579 5584 5590 5596
5504 5504 5503 5503 5502 5501 5501 5500 5500 5500 5499 5499 5499 5499 5499 5499 5499 5501 5502 5503 5504 5506 5508 5510 5511 5514 5516 5519 5522 5525 5528 5531 5534 5537 5540 5544 5548 5553 5558 5564 5570 5575 5581
5494 5493 5492 5491 5491 5490 5490 5489 5488 5488 5487 5487 5487 5486 5486 5486 5486 5487 5488 5489 5491 5492 5494 5496 5498 5501 5503 5506 5509 5512 5515 5518 5521 5524 5527 5531 5535 5540 5545 5550 5555 5561 5567
5484 5483 5481 5480 5480 5479 5478 5478 5477 5476 5476 5475 5474 5474 5473 5473 5473 5474 5474 5476 5477 5479 5481 5483 5485 5488 5490 5493 5496 5499 5502 5505 5508 5511 5515 5518 5522 5526 5531 5536 5541 5547 5552
5474 5472 5471 5470 5469 5468 5467 5466 5465 5464 5463 5463 5462 5461 5461 5460 5460 5460 5461 5462 5464 5466 5468 5470 5472 5475 5478 5481 5484 5487 5490 5493 5496 5499 5503 5506 5510 5514 5518 5523 5528 5533 5538
5464 5462 5461 5460 5459 5457 5456 5454 5453 5452 5451 5450 5449 5448 5447 5447 5447 5448 5448 5450 5451 5453 5455 5457 5459 5462 5466 5469 5472 5475 5478 5482 5485 5487 5490 5494 5498 5501 5505 5510 5515 5520 5524
5454 5452 5451 5450 5448 5446 5444 5443 5442 5440 5439 5437 5436 5435 5434 5434 5435 5435 5436 5437 5439 5441 5443 5445 5447 5450 5454 5457 5461 5464 5467 5470 5473 5476 5479 5482 5485 5488 5491 5496 5501 5506 5510
5446 5444 5442 5440 5438 5436 5434 5432 5431 5429 5427 5425 5424 5423 5422 5422 5423 5423 5424 5425 5427 5429 5431 5433 5436 5438 5442 5446 5449 5452 5456 5459 5462 5464 5467 5470 5473 5476 5479 5483 5487 5491 5495
5438 5435 5433 5430 5428 5426 5424 5422 5420 5418 5416 5415 5413 5412 5411 5411 5411 5412 5413 5414 5416 5418 5420 5422 5424 5427 5430 5434 5437 5440 5443 5447 5450 5453 5456 5459 5461 5463 5466 5470 5474 5476 5480
5429 5427 5424 5422 5419 5416 5414 5412 5410 5408 5406 5405 5403 5402 5401 5401 5401 5402 5402 5404 5405 5407 5409 5411 5414 5416 5419 5422 5426 5429 5432 5435 5438 5441 5444 5446 5448 5450 5453 5456 5459 5462 5465
5422 5419 5416 5413 5411 5408 5405 5403 5401 5399 5397 5396 5394 5393 5393 5392 5392 5392 5393 5394 5396 5397 5399 5401 5403 5406 5409 5412 5415 5418 5421 5423 5426 5429 5432 5433 5435 5437 5440 5442 5445 5448 5451
5414 5411 5408 5405 5402 5399 5397 5395 5393 5391 5389 5387 5386 5385 5384 5384 5383 5384 5384 5386 5387 5388 5390 5392 5394 5397 5399 5402 5404 5407 5409 5412 5415 5417 5419 5421 5423 5425 5427 5430 5432 5435 5437
5406 5403 5400 5397 5394 5392 5390 5387 5385 5383 5381 5379 5378 5377 5376 5376 5376 5376 5376 5376 5378 5380 5381 5383 5385 5387 5389 5391 5393 5396 5398 5400 5403 5405 5407 5409 5411 5413 5415 5417 5420 5422 5424